Find Local Weather

World > North America > United States > Florida

Miami, Florida Regional Weather

Lat: 25.77N, Lon: 80.2W
Wx Zone: FLZ074
Warning FLW WEATHER ALERT - (More Info. Click Here) Warning
Feedback
Expires:201806180100;;700548
ASUS42 KTBW 180017
RWRFL 
FLORIDA REGIONAL WEATHER ROUNDUP
NATIONAL WEATHER SERVICE TAMPA BAY RUSKIN FL
800 PM EDT SUN JUN 17 2018

NOTE: "FAIR" INDICATES FEW OR NO CLOUDS BELOW 12,000 FEET WITH NO
SIGNIFICANT WEATHER AND/OR OBSTRUCTIONS TO VISIBILITY.


FLZ067-068-071>074-168-172>174-180100-
SOUTHEAST FLORIDA 
  
CITY           SKY/WX    TMP DP  RH WIND       PRES   REMARKS
W PALM BEACH   MOCLDY    83  74  74 NE10      30.09R                  
BOCA RATON     PTCLDY    82  73  74 E14       30.08R                  
FT LAUDER-EXEC FAIR      84  75  74 NE9       30.07S                  
FT LAUDERDALE  MOCLDY    82  76  81 NE12      30.06R                  
POMPANO BEACH  FAIR      84  74  71 NE12      30.07S                  
PEMBROKE PINES FAIR      85  74  69 E10       30.08R                  
OPA LOCKA      FAIR      84  74  71 E13       30.07R                  
MIAMI          MOCLDY    83  75  77 E9        30.07R                  
WEST KENDALL   FAIR      83  74  74 E9        30.06S                  
HOMESTEAD      FAIR      83  74  74 NE7       30.06R                  

STATION/POSITION SKY/WX   TEMP    WIND        PRES    WAVE   SWELL
                          AIR SEA DIR/SP/G            HT/PER HT/PER
                          (F)     (DEG/KT/KT) (MB)    (FT/S) (FT/S)
PORT EVERGLADES            83      50/ 10/ 14 1018.2R
VIRGINIA KEY               83 87   40/  8/ 10 1017.7R
FOWEY ROCKS                83 83   50/ 12/ 12 1018.6F
SETTLEMENT POINT 

SKY/WX - Weather  TMP - Temperature  DP - Dewpoint  RH - Relative Humidity
WIND - Wind Direction/Speed PRES - Barometric Pressure